Previsão horária em Abergavenny

Hoje, 16 Janeiro, Sábado

Tempo Temperatura Precipitação Vento Pressão Humidade
00:00 +1°C° 0 mm 6 m/s 751 mmHg 89%
01:00 +1°C° 1.1 mm 6 m/s 750 mmHg 91%
02:00 +2°C° 1.1 mm 7 m/s 749 mmHg 92%
03:00 +1°C° 1.1 mm 8 m/s 748 mmHg 94%
04:00 +3°C° 1.9 mm 7 m/s 747 mmHg 95%
05:00 +3°C° 1.9 mm 7 m/s 746 mmHg 96%
06:00 +4°C° 1.9 mm 7 m/s 745 mmHg 96%
07:00 +4°C° 1.1 mm 6 m/s 745 mmHg 95%
08:00 +6°C° 1.1 mm 5 m/s 745 mmHg 93%
09:00 +6°C° 1.1 mm 5 m/s 745 mmHg 92%
10:00 +6°C° 0 mm 5 m/s 745 mmHg 89%
11:00 +6°C° 0 mm 5 m/s 746 mmHg 87%
12:00 +5°C° 0 mm 6 m/s 746 mmHg 84%
13:00 +6°C° 0 mm 5 m/s 746 mmHg 85%
14:00 +6°C° 0 mm 5 m/s 747 mmHg 85%
15:00 +6°C° 0 mm 5 m/s 747 mmHg 85%
16:00 +5°C° 0 mm 4 m/s 747 mmHg 87%
17:00 +4°C° 0 mm 4 m/s 748 mmHg 89%
18:00 +3°C° 0 mm 3 m/s 748 mmHg 92%
19:00 +2°C° 0 mm 3 m/s 748 mmHg 92%
20:00 +2°C° 0 mm 3 m/s 749 mmHg 92%
21:00 +3°C° 0 mm 2 m/s 749 mmHg 91%
22:00 +2°C° 0 mm 3 m/s 749 mmHg 91%
23:00 +2°C° 0 mm 3 m/s 749 mmHg 90%

Amanhã, 17 Janeiro, Domingo

Tempo Temperatura Precipitação Vento Pressão Humidade
00:00 +2°C° 0 mm 3 m/s 749 mmHg 90%
01:00 +2°C° 0 mm 3 m/s 750 mmHg 90%
02:00 0°C° 0 mm 4 m/s 750 mmHg 89%
03:00 0°C° 0 mm 4 m/s 750 mmHg 89%
04:00 0°C° 0 mm 4 m/s 750 mmHg 89%
05:00 0°C° 0 mm 4 m/s 750 mmHg 89%
06:00 +1°C° 0 mm 3 m/s 751 mmHg 90%
07:00 +1°C° 0 mm 3 m/s 751 mmHg 90%
08:00 +1°C° 0 mm 3 m/s 751 mmHg 90%
09:00 +1°C° 0 mm 3 m/s 752 mmHg 90%
10:00 +2°C° 0 mm 3 m/s 752 mmHg 87%
11:00 +3°C° 0 mm 3 m/s 753 mmHg 84%
12:00 +4°C° 0 mm 4 m/s 753 mmHg 81%
13:00 +4°C° 0 mm 4 m/s 753 mmHg 82%
14:00 +4°C° 0 mm 4 m/s 753 mmHg 83%
15:00 +4°C° 0 mm 3 m/s 753 mmHg 84%
16:00 +4°C° 0 mm 3 m/s 753 mmHg 86%
17:00 +3°C° 0 mm 3 m/s 753 mmHg 88%
18:00 +4°C° 0 mm 2 m/s 753 mmHg 89%
19:00 +3°C° 0 mm 2 m/s 753 mmHg 90%
20:00 +3°C° 0 mm 2 m/s 753 mmHg 90%
21:00 +3°C° 0 mm 2 m/s 753 mmHg 91%
22:00 +2°C° 0 mm 2 m/s 753 mmHg 91%
23:00 +1°C° 0 mm 3 m/s 753 mmHg 92%

Depois de amanhã, 18 Janeiro, Segunda-feira

Tempo Temperatura Precipitação Vento Pressão Humidade
00:00 +1°C° 0 mm 3 m/s 752 mmHg 92%
01:00 +1°C° 0 mm 3 m/s 752 mmHg 92%
02:00 +2°C° 0 mm 2 m/s 752 mmHg 92%
03:00 +2°C° 0 mm 2 m/s 751 mmHg 92%
04:00 +2°C° 0 mm 2 m/s 751 mmHg 93%
05:00 +2°C° 0 mm 2 m/s 751 mmHg 93%
06:00 +2°C° 0 mm 2 m/s 750 mmHg 93%
07:00 +3°C° 0 mm 2 m/s 750 mmHg 92%
08:00 +3°C° 0 mm 2 m/s 750 mmHg 92%
09:00 +3°C° 0 mm 2 m/s 750 mmHg 91%
10:00 +3°C° 0 mm 3 m/s 750 mmHg 88%
11:00 +4°C° 0 mm 4 m/s 750 mmHg 84%
12:00 +5°C° 0 mm 5 m/s 750 mmHg 81%
13:00 +3°C° 0 mm 5 m/s 749 mmHg 83%
14:00 +4°C° 0 mm 4 m/s 748 mmHg 85%
15:00 +4°C° 0 mm 3 m/s 747 mmHg 86%
16:00 +4°C° 0.5 mm 4 m/s 746 mmHg 90%
17:00 +4°C° 0.5 mm 4 m/s 745 mmHg 93%
18:00 +4°C° 0.5 mm 4 m/s 744 mmHg 97%
19:00 +5°C° 0.7 mm 5 m/s 743 mmHg 97%
20:00 +6°C° 0.7 mm 5 m/s 742 mmHg 97%
21:00 +7°C° 0.7 mm 6 m/s 741 mmHg 97%
22:00 +8°C° 1.3 mm 7 m/s 741 mmHg 96%
23:00 +7°C° 1.3 mm 9 m/s 740 mmHg 95%

19 Janeiro, Terça-feira

Tempo Temperatura Precipitação Vento Pressão Humidade
00:00 +8°C° 1.3 mm 10 m/s 739 mmHg 93%
01:00 +8°C° 0.1 mm 10 m/s 739 mmHg 92%
02:00 +8°C° 0.1 mm 10 m/s 738 mmHg 92%
03:00 +8°C° 0.1 mm 10 m/s 738 mmHg 91%
04:00 +8°C° 0.1 mm 10 m/s 737 mmHg 90%
05:00 +7°C° 0.1 mm 10 m/s 737 mmHg 90%
06:00 +7°C° 0.1 mm 10 m/s 737 mmHg 90%
07:00 +7°C° 0.6 mm 10 m/s 736 mmHg 91%
08:00 +7°C° 0.6 mm 10 m/s 736 mmHg 92%
09:00 +7°C° 0.6 mm 9 m/s 735 mmHg 92%
10:00 +7°C° 0.6 mm 9 m/s 734 mmHg 91%
11:00 +7°C° 0.6 mm 10 m/s 734 mmHg 90%
12:00 +7°C° 0.6 mm 10 m/s 733 mmHg 89%
13:00 +7°C° 1.6 mm 10 m/s 732 mmHg 90%
14:00 +7°C° 1.6 mm 9 m/s 731 mmHg 91%
15:00 +8°C° 1.6 mm 9 m/s 730 mmHg 93%
16:00 +8°C° 1.4 mm 9 m/s 729 mmHg 93%
17:00 +8°C° 1.4 mm 9 m/s 728 mmHg 93%
18:00 +8°C° 1.4 mm 9 m/s 727 mmHg 93%
19:00 +8°C° 1.5 mm 9 m/s 727 mmHg 93%
20:00 +8°C° 1.5 mm 10 m/s 726 mmHg 92%
21:00 +8°C° 1.5 mm 10 m/s 726 mmHg 92%
22:00 +8°C° 0.1 mm 10 m/s 725 mmHg 91%
23:00 +8°C° 0.1 mm 10 m/s 725 mmHg 91%

20 Janeiro, Quarta-feira

Tempo Temperatura Precipitação Vento Pressão Humidade
00:00 +8°C° 0.1 mm 10 m/s 724 mmHg 90%
01:00 +8°C° 0.3 mm 10 m/s 723 mmHg 90%
02:00 +8°C° 0.3 mm 9 m/s 723 mmHg 91%
03:00 +8°C° 0.3 mm 9 m/s 722 mmHg 91%
04:00 +7°C° 0.2 mm 9 m/s 722 mmHg 91%
05:00 +7°C° 0.2 mm 9 m/s 721 mmHg 92%
06:00 +7°C° 0.2 mm 8 m/s 721 mmHg 92%
07:00 +6°C° 0.6 mm 7 m/s 721 mmHg 92%
08:00 +7°C° 0.6 mm 6 m/s 721 mmHg 91%
09:00 +6°C° 0.6 mm 4 m/s 721 mmHg 91%
10:00 +5°C° 0.1 mm 5 m/s 721 mmHg 88%
11:00 +3°C° 0.1 mm 5 m/s 722 mmHg 85%
12:00 +2°C° 0.1 mm 6 m/s 722 mmHg 83%
13:00 +3°C° 0 mm 5 m/s 723 mmHg 81%
14:00 +3°C° 0 mm 5 m/s 723 mmHg 79%
15:00 +3°C° 0 mm 5 m/s 723 mmHg 77%
16:00 +2°C° 0 mm 5 m/s 724 mmHg 81%
17:00 +1°C° 0 mm 4 m/s 724 mmHg 85%
18:00 0°C° 0 mm 4 m/s 724 mmHg 89%
19:00 0°C° 0 mm 4 m/s 724 mmHg 88%
20:00 +1°C° 0 mm 5 m/s 725 mmHg 88%
21:00 +1°C° 0 mm 5 m/s 725 mmHg 87%
22:00 +1°C° 0 mm 6 m/s 725 mmHg 87%
23:00 +1°C° 0 mm 6 m/s 725 mmHg 87%

21 Janeiro, Quinta-feira

Tempo Temperatura Precipitação Vento Pressão Humidade
00:00 +1°C° 0 mm 6 m/s 725 mmHg 86%
01:00 +1°C° 0 mm 6 m/s 725 mmHg 87%
02:00 0°C° 0 mm 5 m/s 726 mmHg 88%
03:00 0°C° 0 mm 5 m/s 726 mmHg 89%
04:00 0°C° 0 mm 5 m/s 727 mmHg 89%
05:00 -1°C° 0 mm 6 m/s 728 mmHg 88%
06:00 -1°C° 0 mm 6 m/s 729 mmHg 88%
07:00 0°C° 0 mm 5 m/s 729 mmHg 88%
08:00 0°C° 0 mm 5 m/s 730 mmHg 88%
09:00 0°C° 0 mm 4 m/s 730 mmHg 88%
10:00 +1°C° 0 mm 4 m/s 731 mmHg 84%
11:00 +2°C° 0 mm 5 m/s 731 mmHg 80%
12:00 +3°C° 0 mm 5 m/s 732 mmHg 76%
13:00 +3°C° 0 mm 5 m/s 732 mmHg 76%
14:00 +4°C° 0 mm 4 m/s 732 mmHg 77%
15:00 +4°C° 0 mm 4 m/s 732 mmHg 78%
16:00 +3°C° 0 mm 3 m/s 732 mmHg 82%
17:00 +3°C° 0 mm 2 m/s 732 mmHg 87%
18:00 +1°C° 0 mm 2 m/s 732 mmHg 91%
19:00 +2°C° 0 mm 1 m/s 732 mmHg 91%
20:00 +2°C° 0 mm 1 m/s 732 mmHg 91%
21:00 +1°C° 0 mm 1 m/s 733 mmHg 92%
22:00 +1°C° 0 mm 1 m/s 733 mmHg 91%
23:00 +1°C° 0 mm 1 m/s 733 mmHg 91%
Mostrar mais